Year,Month,Day,Hour,Minute,Value (Times are PST for temperature in C)
2018,06,17,00,00,15.40
2018,06,17,00,01,15.30
2018,06,17,00,02,15.10
2018,06,17,00,03,15.00
2018,06,17,00,04,15.00
2018,06,17,00,05,14.90
2018,06,17,00,06,14.90
2018,06,17,00,07,14.90
2018,06,17,00,08,14.90
2018,06,17,00,09,14.90
2018,06,17,00,10,14.90
2018,06,17,00,11,15.00
2018,06,17,00,12,15.00
2018,06,17,00,13,15.00
2018,06,17,00,14,15.00
2018,06,17,00,15,15.10
2018,06,17,00,16,15.10
2018,06,17,00,17,15.10
2018,06,17,00,18,15.10
2018,06,17,00,19,15.10
2018,06,17,00,20,15.10
2018,06,17,00,21,15.10
2018,06,17,00,22,15.10
2018,06,17,00,23,15.10
2018,06,17,00,24,15.10
2018,06,17,00,25,15.10
2018,06,17,00,26,15.10
2018,06,17,00,27,15.00
2018,06,17,00,28,14.90
2018,06,17,00,29,14.80
2018,06,17,00,30,14.80
2018,06,17,00,31,14.80
2018,06,17,00,32,14.80
2018,06,17,00,33,14.80
2018,06,17,00,34,14.80
2018,06,17,00,35,14.80
2018,06,17,00,36,14.80
2018,06,17,00,37,14.80
2018,06,17,00,38,14.80
2018,06,17,00,39,14.80
2018,06,17,00,40,14.80
2018,06,17,00,41,14.80
2018,06,17,00,42,14.80
2018,06,17,00,43,14.80
2018,06,17,00,44,14.80
2018,06,17,00,45,14.80
2018,06,17,00,46,14.80
2018,06,17,00,47,14.80
2018,06,17,00,48,14.80
2018,06,17,00,49,14.80
2018,06,17,00,50,14.70
2018,06,17,00,51,14.70
2018,06,17,00,52,14.70
2018,06,17,00,53,14.70
2018,06,17,00,54,14.70
2018,06,17,00,55,14.70
2018,06,17,00,56,14.60
2018,06,17,00,57,14.50
2018,06,17,00,58,14.40
2018,06,17,00,59,14.40
2018,06,17,01,00,14.30
2018,06,17,01,01,14.30
2018,06,17,01,02,14.30
2018,06,17,01,03,14.30
2018,06,17,01,04,14.30
2018,06,17,01,05,14.20
2018,06,17,01,06,14.20
2018,06,17,01,07,14.20
2018,06,17,01,08,14.10
2018,06,17,01,09,14.10
2018,06,17,01,10,14.10
2018,06,17,01,11,14.10
2018,06,17,01,12,14.00
2018,06,17,01,13,14.00
2018,06,17,01,14,13.90
2018,06,17,01,15,13.90
2018,06,17,01,16,13.90
2018,06,17,01,17,13.80
2018,06,17,01,18,13.80
2018,06,17,01,19,13.80
2018,06,17,01,20,13.80
2018,06,17,01,21,13.70
2018,06,17,01,22,13.70
2018,06,17,01,23,13.70
2018,06,17,01,24,13.70
2018,06,17,01,25,13.70
2018,06,17,01,26,13.70
2018,06,17,01,27,13.70
2018,06,17,01,28,13.70
2018,06,17,01,29,13.70
2018,06,17,01,30,13.70
2018,06,17,01,31,13.70
2018,06,17,01,32,13.70
2018,06,17,01,33,13.70
2018,06,17,01,34,13.70
2018,06,17,01,35,13.70
2018,06,17,01,36,13.70
2018,06,17,01,37,13.70
2018,06,17,01,38,13.70
2018,06,17,01,39,13.70
2018,06,17,01,40,13.70
2018,06,17,01,41,13.70
2018,06,17,01,42,13.70
2018,06,17,01,43,13.70
2018,06,17,01,44,13.70
2018,06,17,01,45,13.70
2018,06,17,01,46,13.70
2018,06,17,01,47,13.70
2018,06,17,01,48,13.70
2018,06,17,01,49,13.70
2018,06,17,01,50,13.70
2018,06,17,01,51,13.60
2018,06,17,01,52,13.60
2018,06,17,01,53,13.60
2018,06,17,01,54,13.60
2018,06,17,01,55,13.60
2018,06,17,01,56,13.50
2018,06,17,01,57,13.40
2018,06,17,01,58,13.40
2018,06,17,01,59,13.40
2018,06,17,02,00,13.30
2018,06,17,02,01,13.30
2018,06,17,02,02,13.30
2018,06,17,02,03,13.30
2018,06,17,02,04,13.20
2018,06,17,02,05,13.20
2018,06,17,02,06,13.20
2018,06,17,02,07,13.20
2018,06,17,02,08,13.20
2018,06,17,02,09,13.20
2018,06,17,02,10,13.20
2018,06,17,02,11,13.20
2018,06,17,02,12,13.10
2018,06,17,02,13,13.10
2018,06,17,02,14,13.10
2018,06,17,02,15,13.10
2018,06,17,02,16,13.10
2018,06,17,02,17,13.10
2018,06,17,02,18,13.10
2018,06,17,02,19,13.10
2018,06,17,02,20,13.10
2018,06,17,02,21,13.10
2018,06,17,02,22,13.10
2018,06,17,02,23,13.00
2018,06,17,02,24,13.00
2018,06,17,02,25,13.00
2018,06,17,02,26,12.90
2018,06,17,02,27,12.90
2018,06,17,02,28,12.90
2018,06,17,02,29,12.90
2018,06,17,02,30,12.80
2018,06,17,02,31,12.80
2018,06,17,02,32,12.80
2018,06,17,02,33,12.80
2018,06,17,02,34,12.80
2018,06,17,02,35,12.80
2018,06,17,02,36,12.70
2018,06,17,02,37,12.70
2018,06,17,02,38,12.70
2018,06,17,02,39,12.70
2018,06,17,02,40,12.60
2018,06,17,02,41,12.60
2018,06,17,02,42,12.60
2018,06,17,02,43,12.50
2018,06,17,02,44,12.50
2018,06,17,02,45,12.40
2018,06,17,02,46,12.40
2018,06,17,02,47,12.40
2018,06,17,02,48,12.40
2018,06,17,02,49,12.40
2018,06,17,02,50,12.40
2018,06,17,02,51,12.40
2018,06,17,02,52,12.30
2018,06,17,02,53,12.30
2018,06,17,02,54,12.30
2018,06,17,02,55,12.30
2018,06,17,02,56,12.20
2018,06,17,02,57,12.20
2018,06,17,02,58,12.20
2018,06,17,02,59,12.20
2018,06,17,03,00,12.20
2018,06,17,03,01,12.10
2018,06,17,03,02,12.10
2018,06,17,03,03,12.10
2018,06,17,03,04,12.10
2018,06,17,03,05,12.10
2018,06,17,03,06,12.10
2018,06,17,03,07,12.10
2018,06,17,03,08,12.10
2018,06,17,03,09,12.10
2018,06,17,03,10,12.20
2018,06,17,03,11,12.20
2018,06,17,03,12,12.20
2018,06,17,03,13,12.20
2018,06,17,03,14,12.20
2018,06,17,03,15,12.20
2018,06,17,03,16,12.20
2018,06,17,03,17,12.20
2018,06,17,03,18,12.20
2018,06,17,03,19,12.20
2018,06,17,03,20,12.20
2018,06,17,03,21,12.20
2018,06,17,03,22,12.20
2018,06,17,03,23,12.20
2018,06,17,03,24,12.20
2018,06,17,03,25,12.20
2018,06,17,03,26,12.20
2018,06,17,03,27,12.10
2018,06,17,03,28,12.10
2018,06,17,03,29,12.10
2018,06,17,03,30,12.10
2018,06,17,03,31,12.00
2018,06,17,03,32,12.00
2018,06,17,03,33,11.90
2018,06,17,03,34,11.90
2018,06,17,03,35,11.90
2018,06,17,03,36,11.80
2018,06,17,03,37,11.80
2018,06,17,03,38,11.80
2018,06,17,03,39,11.80
2018,06,17,03,40,11.70
2018,06,17,03,41,11.70
2018,06,17,03,42,11.70
2018,06,17,03,43,11.70
2018,06,17,03,44,11.70
2018,06,17,03,45,11.60
2018,06,17,03,46,11.60
2018,06,17,03,47,11.60
2018,06,17,03,48,11.60
2018,06,17,03,49,11.60
2018,06,17,03,50,11.60
2018,06,17,03,51,11.50
2018,06,17,03,52,11.50
2018,06,17,03,53,11.50
2018,06,17,03,54,11.50
2018,06,17,03,55,11.40
2018,06,17,03,56,11.50
2018,06,17,03,57,11.50
2018,06,17,03,58,11.50
2018,06,17,03,59,11.60
2018,06,17,04,00,11.60
2018,06,17,04,01,11.60
2018,06,17,04,02,11.60
2018,06,17,04,03,11.60
2018,06,17,04,04,11.60
2018,06,17,04,05,11.60
2018,06,17,04,06,11.50
2018,06,17,04,07,11.50
2018,06,17,04,08,11.40
2018,06,17,04,09,11.40
2018,06,17,04,10,11.40
2018,06,17,04,11,11.40
2018,06,17,04,12,11.30
2018,06,17,04,13,11.30
2018,06,17,04,14,11.30
2018,06,17,04,15,11.30
2018,06,17,04,16,11.30
2018,06,17,04,17,11.30
2018,06,17,04,18,11.30
2018,06,17,04,19,11.30
2018,06,17,04,20,11.20
2018,06,17,04,21,11.20
2018,06,17,04,22,11.20
2018,06,17,04,23,11.20
2018,06,17,04,24,11.20
2018,06,17,04,25,11.20
2018,06,17,04,26,11.20
2018,06,17,04,27,11.20
2018,06,17,04,28,11.20
2018,06,17,04,29,11.20
2018,06,17,04,30,11.20
2018,06,17,04,31,11.20
2018,06,17,04,32,11.20
2018,06,17,04,33,11.20
2018,06,17,04,34,11.20
2018,06,17,04,35,11.20
2018,06,17,04,36,11.10
2018,06,17,04,37,11.10
2018,06,17,04,38,11.10
2018,06,17,04,39,11.10
2018,06,17,04,40,11.00
2018,06,17,04,41,11.00
2018,06,17,04,42,11.00
2018,06,17,04,43,11.00
2018,06,17,04,44,11.00
2018,06,17,04,45,10.90
2018,06,17,04,46,10.90
2018,06,17,04,47,10.90
2018,06,17,04,48,10.90
2018,06,17,04,49,10.90
2018,06,17,04,50,10.80
2018,06,17,04,51,10.80
2018,06,17,04,52,10.80
2018,06,17,04,53,10.70
2018,06,17,04,54,10.70
2018,06,17,04,55,10.70
2018,06,17,04,56,10.60
2018,06,17,04,57,10.60
2018,06,17,04,58,10.60
2018,06,17,04,59,10.60
2018,06,17,05,00,10.60
2018,06,17,05,01,10.60
2018,06,17,05,02,10.60
2018,06,17,05,03,10.60
2018,06,17,05,04,10.60
2018,06,17,05,05,10.60
2018,06,17,05,06,10.60
2018,06,17,05,07,10.60
2018,06,17,05,08,10.60
2018,06,17,05,09,10.50
2018,06,17,05,10,10.50
2018,06,17,05,11,10.50
2018,06,17,05,12,10.40
2018,06,17,05,13,10.40
2018,06,17,05,14,10.40
2018,06,17,05,15,10.40
2018,06,17,05,16,10.40
2018,06,17,05,17,10.40
2018,06,17,05,18,10.40
2018,06,17,05,19,10.40
2018,06,17,05,20,10.50
2018,06,17,05,21,10.50
2018,06,17,05,22,10.50
2018,06,17,05,23,10.40
2018,06,17,05,24,10.40
2018,06,17,05,25,10.30
2018,06,17,05,26,10.30
2018,06,17,05,27,10.30
2018,06,17,05,28,10.30
2018,06,17,05,29,10.30
2018,06,17,05,30,10.20
2018,06,17,05,31,10.20
2018,06,17,05,32,10.20
2018,06,17,05,33,10.20
2018,06,17,05,34,10.20
2018,06,17,05,35,10.20
2018,06,17,05,36,10.20
2018,06,17,05,37,10.20
2018,06,17,05,38,10.20
2018,06,17,05,39,10.20
2018,06,17,05,40,10.20
2018,06,17,05,41,10.20
2018,06,17,05,42,10.20
2018,06,17,05,43,10.20
2018,06,17,05,44,10.20
2018,06,17,05,45,10.20
2018,06,17,05,46,10.20
2018,06,17,05,47,10.20
2018,06,17,05,48,10.20
2018,06,17,05,49,10.20
2018,06,17,05,50,10.20
2018,06,17,05,51,10.20
2018,06,17,05,52,10.20
2018,06,17,05,53,10.20
2018,06,17,05,54,10.20
2018,06,17,05,55,10.20
2018,06,17,05,56,10.30
2018,06,17,05,57,10.30
2018,06,17,05,58,10.30
2018,06,17,05,59,10.40
2018,06,17,06,00,10.50
2018,06,17,06,01,10.50
2018,06,17,06,02,10.60
2018,06,17,06,03,10.70
2018,06,17,06,04,10.70
2018,06,17,06,05,10.80
2018,06,17,06,06,10.90
2018,06,17,06,07,11.00
2018,06,17,06,08,11.00
2018,06,17,06,09,11.10
2018,06,17,06,10,11.20
2018,06,17,06,11,11.20
2018,06,17,06,12,11.20
2018,06,17,06,13,11.30
2018,06,17,06,14,11.30
2018,06,17,06,15,11.30
2018,06,17,06,16,11.30
2018,06,17,06,17,11.30
2018,06,17,06,18,11.30
2018,06,17,06,19,11.30
2018,06,17,06,20,11.30
2018,06,17,06,21,11.30
2018,06,17,06,22,11.30
2018,06,17,06,23,11.30
2018,06,17,06,24,11.30
2018,06,17,06,25,11.30
2018,06,17,06,26,11.40
2018,06,17,06,27,11.40
2018,06,17,06,28,11.50
2018,06,17,06,29,11.50
2018,06,17,06,30,11.60
2018,06,17,06,31,11.60
2018,06,17,06,32,11.60
2018,06,17,06,33,11.60
2018,06,17,06,34,11.70
2018,06,17,06,35,11.70
2018,06,17,06,36,11.70
2018,06,17,06,37,11.70
2018,06,17,06,38,11.80
2018,06,17,06,39,11.80
2018,06,17,06,40,11.80
2018,06,17,06,41,11.80
2018,06,17,06,42,11.90
2018,06,17,06,43,11.90
2018,06,17,06,44,11.90
2018,06,17,06,45,12.00
2018,06,17,06,46,12.00
2018,06,17,06,47,12.10
2018,06,17,06,48,12.10
2018,06,17,06,49,12.20
2018,06,17,06,50,12.20
2018,06,17,06,51,12.30
2018,06,17,06,52,12.40
2018,06,17,06,53,12.60
2018,06,17,06,54,12.70
2018,06,17,06,55,12.80
2018,06,17,06,56,12.90
2018,06,17,06,57,13.00
2018,06,17,06,58,13.00
2018,06,17,06,59,13.10
2018,06,17,07,00,13.20
2018,06,17,07,01,13.20
2018,06,17,07,02,13.30
2018,06,17,07,03,13.40
2018,06,17,07,04,13.40
2018,06,17,07,05,13.50
2018,06,17,07,06,13.60
2018,06,17,07,07,13.60
2018,06,17,07,08,13.70
2018,06,17,07,09,13.70
2018,06,17,07,10,13.80
2018,06,17,07,11,13.80
2018,06,17,07,12,13.80
2018,06,17,07,13,13.90
2018,06,17,07,14,13.90
2018,06,17,07,15,14.00
2018,06,17,07,16,14.10
2018,06,17,07,17,14.10
2018,06,17,07,18,14.20
2018,06,17,07,19,14.30
2018,06,17,07,20,14.30
2018,06,17,07,21,14.40
2018,06,17,07,22,14.40
2018,06,17,07,23,14.50
2018,06,17,07,24,14.60
2018,06,17,07,25,14.60
2018,06,17,07,26,14.60
2018,06,17,07,27,14.70
2018,06,17,07,28,14.80
2018,06,17,07,29,14.90
2018,06,17,07,30,15.00
2018,06,17,07,31,15.10
2018,06,17,07,32,15.30
2018,06,17,07,33,15.40
2018,06,17,07,34,15.50
2018,06,17,07,35,15.60
2018,06,17,07,36,15.70
2018,06,17,07,37,15.80
2018,06,17,07,38,16.00
2018,06,17,07,39,16.10
2018,06,17,07,40,16.20
2018,06,17,07,41,16.20
2018,06,17,07,42,16.30
2018,06,17,07,43,16.40
2018,06,17,07,44,16.50
2018,06,17,07,45,16.60
2018,06,17,07,46,16.70
2018,06,17,07,47,16.80
2018,06,17,07,48,16.90
2018,06,17,07,49,16.90
2018,06,17,07,50,17.00
2018,06,17,07,51,17.10
2018,06,17,07,52,17.20
2018,06,17,07,53,17.20
2018,06,17,07,54,17.30
2018,06,17,07,55,17.30
2018,06,17,07,56,17.40
2018,06,17,07,57,17.50
2018,06,17,07,58,17.50
2018,06,17,07,59,17.60
2018,06,17,08,00,17.70
2018,06,17,08,01,17.90
2018,06,17,08,02,17.90
2018,06,17,08,03,18.00
2018,06,17,08,04,18.10
2018,06,17,08,05,18.10
2018,06,17,08,06,18.20
2018,06,17,08,07,18.20
2018,06,17,08,08,18.30
2018,06,17,08,09,18.30
2018,06,17,08,10,18.40
2018,06,17,08,11,18.40
2018,06,17,08,12,18.50
2018,06,17,08,13,18.60
2018,06,17,08,14,18.70
2018,06,17,08,15,18.80
2018,06,17,08,16,18.90
2018,06,17,08,17,19.00
2018,06,17,08,18,19.10
2018,06,17,08,19,19.20
2018,06,17,08,20,19.30
2018,06,17,08,21,19.40
2018,06,17,08,22,19.50
2018,06,17,08,23,19.60
2018,06,17,08,24,19.70
2018,06,17,08,25,19.80
2018,06,17,08,26,20.00
2018,06,17,08,27,20.10
2018,06,17,08,28,20.20
2018,06,17,08,29,20.30
2018,06,17,08,30,20.50
2018,06,17,08,31,20.50
2018,06,17,08,32,20.50
2018,06,17,08,33,20.40
2018,06,17,08,34,20.40
2018,06,17,08,35,20.40
2018,06,17,08,36,20.50
2018,06,17,08,37,20.50
2018,06,17,08,38,20.60
2018,06,17,08,39,20.70
2018,06,17,08,40,20.70
2018,06,17,08,41,20.70
2018,06,17,08,42,20.70
2018,06,17,08,43,20.70
2018,06,17,08,44,20.70
2018,06,17,08,45,20.70
2018,06,17,08,46,20.70
2018,06,17,08,47,20.70
2018,06,17,08,48,20.80
2018,06,17,08,49,20.90
2018,06,17,08,50,21.00
2018,06,17,08,51,21.10
2018,06,17,08,52,21.20
2018,06,17,08,53,21.30
2018,06,17,08,54,21.40
2018,06,17,08,55,21.50
2018,06,17,08,56,21.60
2018,06,17,08,57,21.70
2018,06,17,08,58,21.80
2018,06,17,08,59,21.90
2018,06,17,09,00,22.00
2018,06,17,09,01,22.10
2018,06,17,09,02,22.10
2018,06,17,09,03,22.10
2018,06,17,09,04,22.10
2018,06,17,09,05,22.10
2018,06,17,09,06,22.10
2018,06,17,09,07,22.10
2018,06,17,09,08,22.10
2018,06,17,09,09,22.20
2018,06,17,09,10,22.20
2018,06,17,09,11,22.20
2018,06,17,09,12,22.20
2018,06,17,09,13,22.20
2018,06,17,09,14,22.20
2018,06,17,09,15,22.20
2018,06,17,09,16,22.20
2018,06,17,09,17,22.30
2018,06,17,09,18,22.30
2018,06,17,09,19,22.30
2018,06,17,09,20,22.40
2018,06,17,09,21,22.40
2018,06,17,09,22,22.50
2018,06,17,09,23,22.60
2018,06,17,09,24,22.60
2018,06,17,09,25,22.70
2018,06,17,09,26,22.80
2018,06,17,09,27,22.80
2018,06,17,09,28,22.80
2018,06,17,09,29,22.90
2018,06,17,09,30,22.90
2018,06,17,09,31,22.90
2018,06,17,09,32,22.90
2018,06,17,09,33,22.90
2018,06,17,09,34,22.90
2018,06,17,09,35,22.80
2018,06,17,09,36,22.70
2018,06,17,09,37,22.60
2018,06,17,09,38,22.50
2018,06,17,09,39,22.50
2018,06,17,09,40,22.40
2018,06,17,09,41,22.40
2018,06,17,09,42,22.30
2018,06,17,09,43,22.30
2018,06,17,09,44,22.30
2018,06,17,09,45,22.20
2018,06,17,09,46,22.20
2018,06,17,09,47,22.20
2018,06,17,09,48,22.20
2018,06,17,09,49,22.20
2018,06,17,09,50,22.20
2018,06,17,09,51,22.20
2018,06,17,09,52,22.20
2018,06,17,09,53,22.10
2018,06,17,09,54,22.10
2018,06,17,09,55,22.10
2018,06,17,09,56,22.10
2018,06,17,09,57,22.00
2018,06,17,09,58,22.10
2018,06,17,09,59,22.10
2018,06,17,10,00,22.10
2018,06,17,10,01,22.20
2018,06,17,10,02,22.20
2018,06,17,10,03,22.20
2018,06,17,10,04,22.30
2018,06,17,10,05,22.30
2018,06,17,10,06,22.30
2018,06,17,10,07,22.30
2018,06,17,10,08,22.30
2018,06,17,10,09,22.40
2018,06,17,10,10,22.50
2018,06,17,10,11,22.60
2018,06,17,10,12,22.60
2018,06,17,10,13,22.60
2018,06,17,10,14,22.60
2018,06,17,10,15,22.50
2018,06,17,10,16,22.50
2018,06,17,10,17,22.40
2018,06,17,10,18,22.30
2018,06,17,10,19,22.20
2018,06,17,10,20,22.20
2018,06,17,10,21,22.20
2018,06,17,10,22,22.10
2018,06,17,10,23,22.10
2018,06,17,10,24,22.00
2018,06,17,10,25,22.00
2018,06,17,10,26,22.10
2018,06,17,10,27,22.10
2018,06,17,10,28,22.20
2018,06,17,10,29,22.30
2018,06,17,10,30,22.40
2018,06,17,10,31,22.40
2018,06,17,10,32,22.50
2018,06,17,10,33,22.60
2018,06,17,10,34,22.60
2018,06,17,10,35,22.60
2018,06,17,10,36,22.60
2018,06,17,10,37,22.60
2018,06,17,10,38,22.60
2018,06,17,10,39,22.60
2018,06,17,10,40,22.70
2018,06,17,10,41,22.70
2018,06,17,10,42,22.70
2018,06,17,10,43,22.70
2018,06,17,10,44,22.70
2018,06,17,10,45,22.70
2018,06,17,10,46,22.80
2018,06,17,10,47,22.80
2018,06,17,10,48,22.70
2018,06,17,10,49,22.70
2018,06,17,10,50,22.60
2018,06,17,10,51,22.50
2018,06,17,10,52,22.50
2018,06,17,10,53,22.40
2018,06,17,10,54,22.40
2018,06,17,10,55,22.40
2018,06,17,10,56,22.40
2018,06,17,10,57,22.40
2018,06,17,10,58,22.40
2018,06,17,10,59,22.50
2018,06,17,11,00,22.50
2018,06,17,11,01,22.60
2018,06,17,11,02,22.70
2018,06,17,11,03,22.70
2018,06,17,11,04,22.70
2018,06,17,11,05,22.70
2018,06,17,11,06,22.70
2018,06,17,11,07,22.70
2018,06,17,11,08,22.70
2018,06,17,11,09,22.80
2018,06,17,11,10,22.80
2018,06,17,11,11,22.90
2018,06,17,11,12,22.90
2018,06,17,11,13,23.00
2018,06,17,11,14,23.00
2018,06,17,11,15,23.00
2018,06,17,11,16,23.10
2018,06,17,11,17,23.00
2018,06,17,11,18,23.00
2018,06,17,11,19,22.90
2018,06,17,11,20,22.90
2018,06,17,11,21,22.90
2018,06,17,11,22,23.00
2018,06,17,11,23,23.10
2018,06,17,11,24,23.20
2018,06,17,11,25,23.20
2018,06,17,11,26,23.30
2018,06,17,11,27,23.30
2018,06,17,11,28,23.30
2018,06,17,11,29,23.20
2018,06,17,11,30,23.20
2018,06,17,11,31,23.10
2018,06,17,11,32,23.00
2018,06,17,11,33,23.00
2018,06,17,11,34,23.00
2018,06,17,11,35,23.00
2018,06,17,11,36,23.10
2018,06,17,11,37,23.10
2018,06,17,11,38,23.20
2018,06,17,11,39,23.20
2018,06,17,11,40,23.20
2018,06,17,11,41,23.30
2018,06,17,11,42,23.30
2018,06,17,11,43,23.30
2018,06,17,11,44,23.40
2018,06,17,11,45,23.50
2018,06,17,11,46,23.60
2018,06,17,11,47,23.70
2018,06,17,11,48,23.70
2018,06,17,11,49,23.80
2018,06,17,11,50,23.80
2018,06,17,11,51,23.80
2018,06,17,11,52,23.80
2018,06,17,11,53,23.90
2018,06,17,11,54,23.90
2018,06,17,11,55,23.90
2018,06,17,11,56,23.90
2018,06,17,11,57,24.00
2018,06,17,11,58,24.00
2018,06,17,11,59,24.00
2018,06,17,12,00,24.00
2018,06,17,12,01,24.00
2018,06,17,12,02,24.10
2018,06,17,12,03,24.10
2018,06,17,12,04,24.20
2018,06,17,12,05,24.20
2018,06,17,12,06,24.20
2018,06,17,12,07,24.10
2018,06,17,12,08,24.10
2018,06,17,12,09,24.20
2018,06,17,12,10,24.20
2018,06,17,12,11,24.30
2018,06,17,12,12,24.30
2018,06,17,12,13,24.40
2018,06,17,12,14,24.50
2018,06,17,12,15,24.60
2018,06,17,12,16,24.80
2018,06,17,12,17,24.90
2018,06,17,12,18,25.00
2018,06,17,12,19,25.20
2018,06,17,12,20,25.30
2018,06,17,12,21,25.50
2018,06,17,12,22,25.70
2018,06,17,12,23,25.80
2018,06,17,12,24,25.90
2018,06,17,12,25,26.00
2018,06,17,12,26,26.10
2018,06,17,12,27,26.20
2018,06,17,12,28,26.30
2018,06,17,12,29,26.30
2018,06,17,12,30,26.10
2018,06,17,12,31,25.90
2018,06,17,12,32,25.70
2018,06,17,12,33,25.50
2018,06,17,12,34,25.20
2018,06,17,12,35,24.90
2018,06,17,12,36,24.70
2018,06,17,12,37,24.60
2018,06,17,12,38,24.40
2018,06,17,12,39,24.30
2018,06,17,12,40,24.30
2018,06,17,12,41,24.20
2018,06,17,12,42,24.30
2018,06,17,12,43,24.30
2018,06,17,12,44,24.30
2018,06,17,12,45,24.40
2018,06,17,12,46,24.50
2018,06,17,12,47,24.60
2018,06,17,12,48,24.70
2018,06,17,12,49,24.80
2018,06,17,12,50,24.80
2018,06,17,12,51,24.80
2018,06,17,12,52,24.70
2018,06,17,12,53,24.60
2018,06,17,12,54,24.60
2018,06,17,12,55,24.50
2018,06,17,12,56,24.40
2018,06,17,12,57,24.40
2018,06,17,12,58,24.40
2018,06,17,12,59,24.40
2018,06,17,13,00,24.40
2018,06,17,13,01,24.50
2018,06,17,13,02,24.60
2018,06,17,13,03,24.70
2018,06,17,13,04,24.70
2018,06,17,13,05,24.70
2018,06,17,13,06,24.80
2018,06,17,13,07,24.90
2018,06,17,13,08,25.00
2018,06,17,13,09,25.10
2018,06,17,13,10,25.20
2018,06,17,13,11,25.20
2018,06,17,13,12,25.20
2018,06,17,13,13,25.30
2018,06,17,13,14,25.40
2018,06,17,13,15,25.50
2018,06,17,13,16,25.60
2018,06,17,13,17,25.70
2018,06,17,13,18,25.80
2018,06,17,13,19,25.80
2018,06,17,13,20,25.80
2018,06,17,13,21,25.90
2018,06,17,13,22,25.90
2018,06,17,13,23,25.90
2018,06,17,13,24,25.90
2018,06,17,13,25,26.00
2018,06,17,13,26,26.10
2018,06,17,13,27,26.20
2018,06,17,13,28,26.30
2018,06,17,13,29,26.50
2018,06,17,13,30,26.60
2018,06,17,13,31,26.70
2018,06,17,13,32,26.80
2018,06,17,13,33,26.80
2018,06,17,13,34,26.90
2018,06,17,13,35,26.90
2018,06,17,13,36,27.00
2018,06,17,13,37,27.10
2018,06,17,13,38,27.10
2018,06,17,13,39,27.20
2018,06,17,13,40,27.30
2018,06,17,13,41,27.30
2018,06,17,13,42,27.50
2018,06,17,13,43,27.60
2018,06,17,13,44,27.70
2018,06,17,13,45,27.80
2018,06,17,13,46,27.90
2018,06,17,13,47,28.00
2018,06,17,13,48,28.00
2018,06,17,13,49,28.10
2018,06,17,13,50,28.10
2018,06,17,13,51,28.20
2018,06,17,13,52,28.10
2018,06,17,13,53,28.00
2018,06,17,13,54,27.70
2018,06,17,13,55,27.60
2018,06,17,13,56,27.50
2018,06,17,13,57,27.40
2018,06,17,13,58,27.40
2018,06,17,13,59,27.40
2018,06,17,14,00,27.40
2018,06,17,14,01,27.40
2018,06,17,14,02,27.40
2018,06,17,14,03,27.40
2018,06,17,14,04,27.40
2018,06,17,14,05,27.40
2018,06,17,14,06,27.40
2018,06,17,14,07,27.30
2018,06,17,14,08,27.30
2018,06,17,14,09,27.30
2018,06,17,14,10,27.30
2018,06,17,14,11,27.30
2018,06,17,14,12,27.30
2018,06,17,14,13,27.30
2018,06,17,14,14,27.20
2018,06,17,14,15,27.20
2018,06,17,14,16,27.30
2018,06,17,14,17,27.40
2018,06,17,14,18,27.40
2018,06,17,14,19,27.50
2018,06,17,14,20,27.50
2018,06,17,14,21,27.50
2018,06,17,14,22,27.60
2018,06,17,14,23,27.60
2018,06,17,14,24,27.60
2018,06,17,14,25,27.60
2018,06,17,14,26,27.60
2018,06,17,14,27,27.60
2018,06,17,14,28,27.70
2018,06,17,14,29,27.80
2018,06,17,14,30,27.80
2018,06,17,14,31,27.80
2018,06,17,14,32,27.80
2018,06,17,14,33,27.80
2018,06,17,14,34,27.70
2018,06,17,14,35,27.80
2018,06,17,14,36,27.80
2018,06,17,14,37,27.90
2018,06,17,14,38,27.90
2018,06,17,14,39,27.90
2018,06,17,14,40,27.80
2018,06,17,14,41,27.90
2018,06,17,14,42,28.00
2018,06,17,14,43,28.00
2018,06,17,14,44,28.10
2018,06,17,14,45,28.10
2018,06,17,14,46,28.10
2018,06,17,14,47,28.20
2018,06,17,14,48,28.20
2018,06,17,14,49,28.30
2018,06,17,14,50,28.30
2018,06,17,14,51,28.30
2018,06,17,14,52,28.30
2018,06,17,14,53,28.20
2018,06,17,14,54,28.10
2018,06,17,14,55,28.00
2018,06,17,14,56,27.90
2018,06,17,14,57,27.90
2018,06,17,14,58,27.90
2018,06,17,14,59,27.80
2018,06,17,15,00,27.90
2018,06,17,15,01,27.90
2018,06,17,15,02,27.90
2018,06,17,15,03,28.00
2018,06,17,15,04,28.10
2018,06,17,15,05,28.10
2018,06,17,15,06,28.10
2018,06,17,15,07,28.10
2018,06,17,15,08,28.10
2018,06,17,15,09,28.10
2018,06,17,15,10,28.20
2018,06,17,15,11,28.30
2018,06,17,15,12,28.30
2018,06,17,15,13,28.20
2018,06,17,15,14,28.10
2018,06,17,15,15,28.10
2018,06,17,15,16,28.00
2018,06,17,15,17,27.90
2018,06,17,15,18,27.90
2018,06,17,15,19,27.90
2018,06,17,15,20,27.90
2018,06,17,15,21,27.90
2018,06,17,15,22,27.80
2018,06,17,15,23,27.80
2018,06,17,15,24,27.70
2018,06,17,15,25,27.70
2018,06,17,15,26,27.80
2018,06,17,15,27,27.80
2018,06,17,15,28,27.80
2018,06,17,15,29,27.90
2018,06,17,15,30,27.90
2018,06,17,15,31,28.00
2018,06,17,15,32,28.00
2018,06,17,15,33,28.10
2018,06,17,15,34,28.10
2018,06,17,15,35,28.30
2018,06,17,15,36,28.40
2018,06,17,15,37,28.50
2018,06,17,15,38,28.60
2018,06,17,15,39,28.70
2018,06,17,15,40,28.80
2018,06,17,15,41,28.90
2018,06,17,15,42,29.00
2018,06,17,15,43,29.10
2018,06,17,15,44,29.10
2018,06,17,15,45,29.10
2018,06,17,15,46,29.00
2018,06,17,15,47,29.10
2018,06,17,15,48,29.20
2018,06,17,15,49,29.30
2018,06,17,15,50,29.30
2018,06,17,15,51,29.30
2018,06,17,15,52,29.40
2018,06,17,15,53,29.30
2018,06,17,15,54,29.40
2018,06,17,15,55,29.40
2018,06,17,15,56,29.50
2018,06,17,15,57,29.60
2018,06,17,15,58,29.80
2018,06,17,15,59,29.90
2018,06,17,16,00,30.00
2018,06,17,16,01,30.10
2018,06,17,16,02,30.30
2018,06,17,16,03,30.30
2018,06,17,16,04,30.40
2018,06,17,16,05,30.40
2018,06,17,16,06,30.20
2018,06,17,16,07,30.00
2018,06,17,16,08,29.80
2018,06,17,16,09,29.60
2018,06,17,16,10,29.60
2018,06,17,16,11,29.50
2018,06,17,16,12,29.50
2018,06,17,16,13,29.60
2018,06,17,16,14,29.70
2018,06,17,16,15,29.70
2018,06,17,16,16,29.70
2018,06,17,16,17,29.80
2018,06,17,16,18,29.80
2018,06,17,16,19,29.90
2018,06,17,16,20,29.90
2018,06,17,16,21,29.80
2018,06,17,16,22,29.50
2018,06,17,16,23,29.30
2018,06,17,16,24,29.20
2018,06,17,16,25,29.10
2018,06,17,16,26,29.10
2018,06,17,16,27,29.10
2018,06,17,16,28,29.10
2018,06,17,16,29,29.10
2018,06,17,16,30,29.10
2018,06,17,16,31,29.00
2018,06,17,16,32,29.00
2018,06,17,16,33,29.00
2018,06,17,16,34,29.00
2018,06,17,16,35,29.00
2018,06,17,16,36,29.00
2018,06,17,16,37,28.90
2018,06,17,16,38,29.00
2018,06,17,16,39,29.00
2018,06,17,16,40,29.10
2018,06,17,16,41,29.10
2018,06,17,16,42,29.10
2018,06,17,16,43,29.10
2018,06,17,16,44,29.10
2018,06,17,16,45,29.10
2018,06,17,16,46,29.10
2018,06,17,16,47,29.00
2018,06,17,16,48,29.00
2018,06,17,16,49,29.00
2018,06,17,16,50,29.10
2018,06,17,16,51,29.10
2018,06,17,16,52,29.10
2018,06,17,16,53,29.20
2018,06,17,16,54,29.20
2018,06,17,16,55,29.20
2018,06,17,16,56,29.10
2018,06,17,16,57,28.90
2018,06,17,16,58,28.80
2018,06,17,16,59,28.70
2018,06,17,17,00,28.50
2018,06,17,17,01,28.40
2018,06,17,17,02,28.40
2018,06,17,17,03,28.40
2018,06,17,17,04,28.40
2018,06,17,17,05,28.50
2018,06,17,17,06,28.60
2018,06,17,17,07,28.50
2018,06,17,17,08,28.40
2018,06,17,17,09,28.50
2018,06,17,17,10,28.50
2018,06,17,17,11,28.60
2018,06,17,17,12,28.70
2018,06,17,17,13,28.70
2018,06,17,17,14,28.80
2018,06,17,17,15,28.80
2018,06,17,17,16,28.80
2018,06,17,17,17,28.90
2018,06,17,17,18,29.00
2018,06,17,17,19,29.00